GW3032 Weather Reports


Display with metric or nautical units.
time (UTC)temp
F
wind
direction
speed
MPH
gust
MPH
rain 1hr
in
rain 24hr
in
rain mn
in
humidity
%
barometer
mb
20260506102346 44 356 3.0 5.0 0.00 0.22 0.22 99 1009.1
20260506101843 44 315 0.0 2.0 0.00 0.22 0.22 99 1009.2
20260506101339 44 12 2.0 3.0 0.00 0.22 0.22 99 1009.5
20260506100837 44 314 1.0 3.0 0.00 0.22 0.22 99 1009.5
20260506100335 44 313 1.0 2.0 0.00 0.22 0.22 99 1009.1
20260506095833 44 300 0.0 1.0 0.00 0.22 0.22 99 1008.8
20260506095330 44 303 0.0 1.0 0.00 0.22 0.22 99 1008.6
20260506094827 44 308 1.0 1.0 0.00 0.22 0.22 99 1008.5
20260506094326 44 306 0.0 0.0 0.00 0.22 0.22 99 1008.0
20260506093823 45 308 0.0 1.0 0.00 0.22 0.22 99 1008.3
20260506093320 45 292 0.0 0.0 0.00 0.22 0.22 99 1008.8
20260506092818 45 292 0.0 0.0 0.00 0.22 0.22 99 1008.8
20260506092316 45 277 0.0 1.0 0.00 0.22 0.22 99 1008.9
20260506091812 45 310 0.0 0.0 0.00 0.22 0.22 99 1009.2
20260506091310 45 323 1.0 1.0 0.00 0.22 0.22 99 1009.5
20260506090808 45 266 1.0 2.0 0.00 0.22 0.22 99 1009.5
20260506090305 45 338 1.0 1.0 0.00 0.22 0.22 99 1009.2
20260506085801 45 305 0.0 1.0 0.00 0.22 0.22 99 1009.5
20260506085257 45 318 1.0 3.0 0.00 0.22 0.22 99 1009.4
20260506084754 45 305 0.0 1.0 0.00 0.22 0.22 99 1009.3
20260506084250 45 310 1.0 1.0 0.00 0.22 0.22 99 1009.1
20260506083748 45 300 0.0 2.0 0.00 0.22 0.22 99 1009.3
20260506083245 45 326 1.0 1.0 0.00 0.22 0.22 99 1009.1
20260506082743 45 350 2.0 3.0 0.07 0.22 0.22 99 1008.8
20260506082238 45 298 1.0 2.0 0.07 0.22 0.22 99 1008.9
20260506081736 45 335 2.0 2.0 0.00 0.21 0.21 99 1009.1
20260506081233 45 328 1.0 3.0 0.00 0.21 0.21 99 1009.0
20260506080731 45 286 2.0 5.0 0.00 0.21 0.21 99 1009.1
20260506080227 45 320 1.0 3.0 0.05 0.21 0.21 99 1009.0
20260506073211 45 329 0.0 2.0 0.00 0.17 0.17 99 1009.1
20260506072708 45 312 0.0 1.0 0.05 0.17 0.17 99 1009.1
20260506072206 45 337 2.0 2.0 0.00 0.16 0.16 99 1009.0
20260506071703 45 318 1.0 1.0 0.07 0.16 0.16 99 1009.1
20260506071201 45 322 1.0 2.0 0.07 0.16 0.16 99 1009.1
20260506070657 45 305 1.0 2.0 0.05 0.15 0.15 99 1009.2
20260506070154 46 316 0.0 1.0 0.07 0.14 0.14 99 1009.0
20260506062131 45 315 0.0 2.0 0.05 0.12 0.12 99 1008.8
20260506061627 45 322 2.0 2.0 0.00 0.11 0.11 99 1008.9
20260506061125 45 322 1.0 1.0 0.00 0.11 0.11 99 1009.1
20260506060624 46 317 0.0 1.0 0.00 0.11 0.11 99 1009.2
20260506060120 46 307 0.0 0.0 0.07 0.11 0.11 99 1009.4
20260506051052 46 306 1.0 2.0 0.00 0.06 0.06 99 1009.5
20260506050550 45 306 0.0 0.0 0.05 0.06 0.06 99 1009.4
20260506045040 46 317 2.0 3.0 0.05 0.04 0.04 99 1009.2
20260506044538 46 304 0.0 2.0 0.05 0.04 0.04 99 1009.2
20260506044035 46 321 0.0 1.0 0.07 0.03 0.03 99 1009.2
20260506043532 46 305 0.0 1.0 0.07 0.03 0.03 99 1009.4
20260506043030 46 319 0.0 2.0 0.05 0.02 0.02 99 1009.5
20260506042529 46 314 0.0 1.0 0.05 0.02 0.02 99 1009.3
20260506042027 47 320 0.0 1.0 0.07 0.01 0.01 99 1009.4
20260506041525 47 307 2.0 3.0 0.07 0.01 0.01 99 1009.5
20260506041021 47 333 2.0 3.0 0.00 0.00 0.00 99 1009.5
20260506040520 47 311 2.0 2.0 0.00 0.00 0.00 99 1009.4
20260506040015 48 343 2.0 3.0 0.07 1.05 1.05 99 1009.8
20260506035512 48 348 3.0 5.0 0.00 1.04 1.04 99 1009.5
20260506035009 48 334 2.0 5.0 0.05 1.04 1.04 99 1009.7
20260506034507 48 2 3.0 5.0 0.05 1.04 1.04 99 1009.7
20260506034003 48 351 2.0 3.0 0.07 1.03 1.03 99 1009.7
20260506033501 48 324 2.0 2.0 0.07 1.03 1.03 99 1009.8
20260506032957 48 318 0.0 2.0 0.05 1.02 1.02 99 1009.9
20260506032455 48 316 1.0 2.0 0.07 1.01 1.01 99 1009.9
20260506031951 48 335 1.0 2.0 0.12 1.01 1.01 99 1010.0
20260506031449 48 311 1.0 1.0 0.12 1.00 1.00 99 1010.1
20260506030946 48 331 1.0 2.0 0.12 0.99 0.99 99 1010.1
20260506030444 49 316 1.0 3.0 0.12 0.98 0.98 99 1010.2
20260506025940 49 315 1.0 2.0 0.19 0.97 0.97 99 1010.0
20260506025437 49 311 0.0 1.0 0.19 0.95 0.95 99 1010.2
20260506024934 49 310 0.0 0.0 0.17 0.93 0.93 99 1010.0
20260506024431 49 309 0.0 0.0 0.12 0.91 0.91 99 1010.0
20260506023927 49 309 0.0 1.0 0.12 0.90 0.90 99 1010.2
20260506023424 49 307 0.0 2.0 0.17 0.89 0.89 99 1010.0
20260506022920 49 296 0.0 0.0 0.12 0.87 0.87 99 1010.0
20260506022418 49 296 0.0 0.0 0.19 0.86 0.86 99 1010.0
20260506021916 49 294 0.0 0.0 0.17 0.85 0.85 99 1010.1
20260506021413 49 297 0.0 0.0 0.19 0.83 0.83 99 1010.0
20260506020910 49 285 0.0 0.0 0.12 0.81 0.81 99 1010.0
20260506020408 49 274 0.0 1.0 0.17 0.80 0.80 99 1009.8
20260506015905 49 318 1.0 1.0 0.12 0.78 0.78 99 1009.7
20260506015402 49 307 0.0 0.0 0.19 0.77 0.77 99 1009.5
20260506014859 49 300 0.0 0.0 0.12 0.75 0.75 99 1009.4
20260506014356 49 300 0.0 0.0 0.12 0.74 0.74 99 1009.4
20260506013852 49 325 1.0 1.0 0.12 0.73 0.73 99 1009.3
20260506013350 49 300 1.0 2.0 0.12 0.72 0.72 99 1009.2
20260506012846 49 308 0.0 1.0 0.12 0.71 0.71 99 1009.3
20260506012343 49 306 0.0 0.0 0.12 0.70 0.70 99 1009.2
20260506011840 49 318 0.0 1.0 0.14 0.69 0.69 99 1009.1
20260506011337 50 310 0.0 1.0 0.12 0.68 0.68 99 1009.1
20260506010834 50 325 0.0 3.0 0.12 0.67 0.67 99 1009.3
20260506010333 50 288 0.0 2.0 0.12 0.66 0.66 99 1009.3
20260506005829 50 19 2.0 3.0 0.05 0.65 0.65 99 1009.2
20260506005326 50 328 1.0 5.0 0.00 0.64 0.64 99 1009.4
20260506004822 50 312 0.0 1.0 0.07 0.64 0.64 99 1009.5
20260506004320 50 337 2.0 5.0 0.05 0.63 0.63 99 1009.2
20260506003815 50 334 2.0 2.0 0.05 0.63 0.63 99 1009.2
20260506003312 50 333 1.0 3.0 0.00 0.62 0.62 99 1009.3
20260506002808 50 319 0.0 1.0 0.07 0.62 0.62 99 1009.1
20260506002306 50 329 0.0 3.0 0.05 0.61 0.61 99 1009.0
20260506001801 50 300 0.0 1.0 0.12 0.61 0.61 99 1008.9
20260506001258 50 348 1.0 3.0 0.07 0.60 0.60 99 1009.1
20260506000755 50 306 2.0 2.0 0.12 0.59 0.59 99 1008.8
20260506000254 50 283 0.0 0.0 0.24 0.59 0.59 99 1008.5
20260505235749 51 294 1.0 3.0 0.31 0.57 0.57 99 1008.6
20260505235247 51 256 1.0 1.0 0.17 0.54 0.54 99 1008.6
20260505234743 51 269 0.0 0.0 0.12 0.52 0.52 99 1008.4
20260505234241 50 268 0.0 2.0 0.12 0.51 0.51 99 1008.7
20260505233737 50 351 1.0 2.0 0.05 0.50 0.50 99 1008.7
20260505233236 50 303 0.0 1.0 0.00 0.49 0.49 99 1008.6
20260505232732 50 315 2.0 2.0 0.00 0.49 0.49 99 1008.7
20260505232230 50 339 1.0 2.0 0.00 0.49 0.49 99 1008.7
20260505231726 50 305 2.0 3.0 0.00 0.49 0.49 99 1008.6
20260505231226 50 314 2.0 2.0 0.07 0.49 0.49 99 1008.7
20260505230723 50 351 1.0 5.0 0.07 0.49 0.49 99 1008.8
20260505230220 50 334 3.0 3.0 0.00 0.48 0.48 99 1008.8
20260505225716 50 354 1.0 1.0 0.00 0.48 0.48 99 1008.9
20260505225213 50 334 3.0 3.0 0.05 0.48 0.48 99 1009.3
20260505224709 50 3 3.0 5.0 0.05 0.48 0.48 99 1009.2
20260505224207 50 355 3.0 6.0 0.07 0.47 0.47 99 1009.1
20260505223704 51 334 3.0 5.0 0.12 0.46 0.46 99 1009.2
20260505223200 52 30 3.0 6.0 0.19 0.45 0.45 99 1009.3
20260505222656 52 348 2.0 7.0 0.31 0.44 0.44 99 1009.3
20260505222152 53 358 1.0 6.0 0.42 0.42 0.42 99 1009.2
20260505221650 54 316 5.0 7.0 0.24 0.37 0.37 99 1009.1
20260505221146 55 339 3.0 5.0 0.19 0.34 0.34 99 1008.7
20260505220643 56 304 2.0 2.0 0.12 0.33 0.33 99 1008.6
20260505220141 56 342 3.0 5.0 0.07 0.31 0.31 99 1008.3
20260505215638 56 27 3.0 5.0 0.07 0.31 0.31 99 1008.4
20260505215136 56 313 1.0 2.0 0.05 0.30 0.30 99 1008.5
20260505214634 57 322 2.0 2.0 0.05 0.30 0.30 99 1008.4
20260505214131 57 318 1.0 2.0 0.00 0.29 0.29 99 1008.3
20260505213629 57 309 1.0 2.0 0.00 0.29 0.29 99 1008.4
20260505213125 57 333 2.0 3.0 0.00 0.29 0.29 99 1008.3
20260505212621 57 309 1.0 1.0 0.00 0.29 0.29 99 1008.3
20260505212119 57 264 1.0 2.0 0.07 0.29 0.29 99 1008.4
20260505211615 57 293 0.0 1.0 0.12 0.29 0.29 99 1008.3
20260505211113 57 290 0.0 0.0 0.12 0.28 0.28 99 1008.4
20260505210609 57 275 0.0 1.0 0.07 0.27 0.27 99 1008.4
20260505210106 57 293 1.0 2.0 0.05 0.26 0.26 99 1008.4
20260505205604 57 292 0.0 0.0 0.00 0.25 0.25 99 1008.4
20260505205101 57 253 1.0 1.0 0.12 0.25 0.25 99 1008.6
20260505204558 57 317 1.0 3.0 0.12 0.24 0.24 99 1008.6
20260505204056 57 277 0.0 1.0 0.12 0.23 0.23 99 1008.6
20260505203552 57 315 1.0 3.0 0.54 0.22 0.22 99 1008.6
20260505203049 58 283 0.0 1.0 0.47 0.20 0.20 99 1008.6
20260505202545 57 282 0.0 0.0 0.17 0.13 0.13 99 1008.7
20260505202041 58 266 0.0 1.0 0.19 0.12 0.12 99 1008.6
20260505201538 58 291 0.0 2.0 0.07 0.10 0.10 99 1008.9
20260505201036 58 277 0.0 1.0 0.05 0.09 0.09 99 1008.7
20260505200534 58 290 0.0 0.0 0.05 0.09 0.09 99 1008.3
20260505200030 58 269 0.0 1.0 0.07 0.08 0.08 99 1008.5
20260505195526 58 297 1.0 2.0 0.26 0.08 0.08 99 1008.6
20260505195024 58 275 0.0 5.0 0.14 0.06 0.06 98 1008.7
20260505194521 58 273 1.0 1.0 0.00 0.04 0.04 98 1008.5
20260505194016 58 334 1.0 1.0 0.00 0.04 0.04 97 1008.4
20260505193514 59 282 0.0 3.0 0.05 0.04 0.04 97 1008.8
20260505193011 59 253 1.0 2.0 0.05 0.04 0.04 97 1008.8
20260505192509 59 285 0.0 1.0 0.07 0.03 0.03 96 1008.9
20260505192007 59 181 3.0 3.0 0.12 0.03 0.03 95 1008.8
20260505191505 59 334 3.0 3.0 0.05 0.02 0.02 93 1009.0
20260505191002 60 313 1.0 3.0 0.00 0.01 0.01 92 1009.2
20260505190457 60 315 1.0 2.0 0.07 0.01 0.01 91 1008.9
20260505185952 60 294 0.0 2.0 0.07 0.01 0.01 90 1008.9
20260505185450 60 313 0.0 3.0 0.00 0.00 0.00 89 1008.8
20260505184946 61 272 2.0 2.0 0.00 0.00 0.00 88 1008.7
20260505184443 61 342 1.0 2.0 0.00 0.00 0.00 87 1008.9
20260505183939 62 290 0.0 3.0 0.00 0.00 0.00 85 1009.0
20260505183437 63 281 1.0 2.0 0.00 0.00 0.00 81 1009.1
20260505182933 63 233 2.0 5.0 0.00 0.00 0.00 79 1008.9
20260505182430 64 275 0.0 3.0 0.00 0.00 0.00 78 1009.0
20260505181926 64 218 1.0 2.0 0.00 0.00 0.00 78 1008.7
20260505181424 64 232 2.0 5.0 0.00 0.00 0.00 77 1008.7
20260505180921 64 292 1.0 1.0 0.00 0.00 0.00 78 1008.8
20260505180417 64 357 1.0 3.0 0.00 0.00 0.00 76 1008.9
20260505175913 64 27 1.0 5.0 0.00 0.00 0.00 77 1008.7
20260505175404 64 270 1.0 6.0 0.00 0.00 0.00 77 1008.9
20260505174901 64 121 2.0 3.0 0.00 0.00 0.00 76 1008.8
20260505174358 64 256 3.0 6.0 0.00 0.00 0.00 76 1008.7
20260505173854 64 261 1.0 6.0 0.00 0.00 0.00 76 1008.8
20260505173351 64 286 4.0 8.0 0.00 0.00 0.00 75 1008.5
20260505172848 65 211 2.0 3.0 0.00 0.00 0.00 75 1008.6
20260505172346 64 341 2.0 2.0 0.00 0.00 0.00 76 1008.6
20260505171845 64 224 3.0 5.0 0.00 0.00 0.00 75 1008.7
20260505171342 64 308 1.0 7.0 0.00 0.00 0.00 75 1008.6
20260505170838 65 281 2.0 5.0 0.00 0.00 0.00 75 1008.7
20260505170336 65 308 1.0 6.0 0.00 0.00 0.00 75 1008.6
20260505165831 65 282 3.0 3.0 0.00 0.00 0.00 73 1008.6
20260505165327 65 94 4.0 8.0 0.00 0.00 0.00 72 1008.7
20260505164822 65 290 3.0 10.0 0.00 0.00 0.00 72 1008.6
20260505164320 65 229 3.0 5.0 0.00 0.00 0.00 72 1008.7
20260505163818 65 259 2.0 5.0 0.00 0.00 0.00 72 1008.5
20260505163316 66 321 3.0 5.0 0.00 0.00 0.00 71 1008.6
20260505162814 65 155 1.0 3.0 0.00 0.00 0.00 71 1008.5
20260505162310 65 181 1.0 6.0 0.00 0.00 0.00 72 1008.6
20260505161808 65 347 2.0 5.0 0.00 0.00 0.00 71 1008.6
20260505161305 66 336 3.0 6.0 0.00 0.00 0.00 71 1008.7
20260505160802 66 199 3.0 5.0 0.00 0.00 0.00 70 1008.6
20260505160300 66 265 2.0 6.0 0.00 0.00 0.00 69 1008.6
20260505153238 68 12 4.0 14.0 0.00 0.00 0.00 68 1008.1
20260505152735 68 79 3.0 8.0 0.00 0.00 0.00 68 1007.5
20260505152231 68 142 4.0 7.0 0.00 0.00 0.00 69 1007.7
20260505151726 67 228 1.0 11.0 0.00 0.00 0.00 69 1007.5
20260505151223 67 296 1.0 7.0 0.00 0.00 0.00 69 1007.3
20260505150720 67 228 2.0 6.0 0.00 0.00 0.00 69 1007.3
20260505150217 67 108 3.0 6.0 0.00 0.00 0.00 68 1007.1
20260505140645 64 204 3.0 10.0 0.00 0.00 0.00 72 1007.3
20260505140142 64 349 2.0 7.0 0.00 0.00 0.00 72 1007.2
20260505130106 61 225 2.0 2.0 0.00 0.00 0.00 81 1006.7
20260505124555 61 255 1.0 2.0 0.00 0.00 0.00 83 1007.2
20260505124052 61 253 1.0 1.0 0.00 0.00 0.00 83 1007.1
20260505123548 60 189 1.0 2.0 0.00 0.00 0.00 82 1007.1
20260505123045 60 246 1.0 2.0 0.00 0.00 0.00 82 1007.0
20260505122542 60 251 1.0 5.0 0.00 0.00 0.00 82 1007.2
20260505122039 60 247 1.0 3.0 0.00 0.00 0.00 83 1007.1
20260505121535 60 208 1.0 2.0 0.00 0.00 0.00 81 1006.8
20260505121032 61 237 0.0 3.0 0.00 0.00 0.00 81 1006.9
20260505120528 61 242 2.0 6.0 0.00 0.00 0.00 80 1006.8
20260505120024 61 215 3.0 5.0 0.00 0.00 0.00 80 1006.6
20260505115519 61 199 4.0 10.0 0.00 0.00 0.00 79 1006.2
20260505115017 62 261 3.0 5.0 0.00 0.00 0.00 78 1006.1
20260505114513 62 275 3.0 6.0 0.00 0.00 0.00 77 1006.0
20260505114010 62 275 4.0 6.0 0.00 0.00 0.00 76 1005.8
20260505113506 62 205 4.0 7.0 0.00 0.00 0.00 76 1005.6
20260505113002 61 4 3.0 3.0 0.00 0.00 0.00 78 1005.3
20260505112458 60 224 2.0 3.0 0.00 0.00 0.00 78 1005.0
20260505111955 60 245 1.0 6.0 0.00 0.00 0.00 78 1005.5
20260505111450 60 253 1.0 2.0 0.00 0.00 0.00 82 1005.2
20260505110947 59 226 2.0 7.0 0.00 0.00 0.00 82 1005.1
20260505110444 59 248 1.0 5.0 0.00 0.00 0.00 83 1005.2